User: anonymous   Login
Location: Caltech
(34.1382°N, 118.1253°W)
Time: 12:51:49
(UTC-07:00)
Language:

Iridium 95 - Orbit

View from above orbital plane
View from above orbital plane
View from above satellite
View from above satellite

Ground track
Ground track

The orbit data is extracted from the following two-line orbital elements,

1 27375U 02005D   16242.49301556 -.00000035  00000-0 -19476-4 0  9990
2 27375  86.3948  49.5326 0001962  85.1780 274.9640 14.34213710769101
Epoch (UTC): 29 August 2016 11:49:56
Eccentricity: 0.0001962
inclination: 86.3948°
perigee height: 776 km
apogee height: 779 km
right ascension of ascending node: 49.5326°
argument of perigee: 85.1780°
revolutions per day: 14.34213710
mean anomaly at epoch: 274.9640°
orbit number at epoch: 76910

The dashed part of the orbit path shows where the satellite is in the earth's shadow,  

DLR